Regional Weather Roundup
Issued by NWS

Home | Current Version | Previous Version | Text Only | Print | Product List | Glossary On
Versions: 1 2 3 4 5 6 7 8 9 10 11 12 13 14 15 16 17 18 19 20 21 22 23 24 25 26 27 28 29 30 31 32 33 34 35 36 37 38 39 40 41 42 43 44 45 46 47 48 49 50
000
ASUS43 KLMK 291910
RWRKY
KENTUCKY REGIONAL WEATHER ROUNDUP
NATIONAL WEATHER SERVICE LOUISVILLE KY
300 PM EDT SAT APR 29 2017

NOTE "FAIR" INDICATES FEW OR NO CLOUDS BELOW 12,000 FEET
WITH NO SIGNIFICANT WEATHER AND/OR OBSTRUCTIONS TO VISIBILITY.

KYZ001>023-026-027-061>063-070>075-292000-
WESTERN AND SOUTH CENTRAL KENTUCKY

CITY           SKY/WX    TMP DP  RH WIND       PRES   REMARKS
PADUCAH        CLOUDY    84  66  54 S14G23    29.88F
HENDERSON        N/A    N/A N/A N/A MISG        N/A
OWENSBORO      PTSUNNY   84  69  60 SE14      29.94F
HOPKINSVILLE   SUNNY     85  66  52 SE14      29.93F
BOWLING GREEN  MOSUNNY   86  67  52 S13       29.98F
GLASGOW        MOSUNNY   85  68  55 E3        30.00F
$$

KYZ024-025-028>034-038-045-046-053-292000-
NORTH CENTRAL KENTUCKY

CITY           SKY/WX    TMP DP  RH WIND       PRES   REMARKS
LOUISVILLE/SDF CLOUDY    80  66  62 SE8       30.01F
LOUISVILLE/LOU CLOUDY    80  66  62 E8        30.02F
FORT KNOX      PTSUNNY   78  69  73 E8        29.99F
$$

KYZ035>037-039>044-047>052-055>060-089>105-292000-
NORTHEAST KENTUCKY

CITY           SKY/WX    TMP DP  RH WIND       PRES   REMARKS
LEXINGTON      CLOUDY    82  65  56 E3        30.07F
COVINGTON      PTSUNNY   76  63  64 SE10      30.06S
FRANKFORT      MOSUNNY   81  65  58 SE7       30.05F
$$

KYZ054-064>069-076>088-106>120-292000-
SOUTHEAST KENTUCKY

CITY           SKY/WX    TMP DP  RH WIND       PRES   REMARKS
JACKSON        CLOUDY    86  64  47 CALM      30.10F
LONDON         CLOUDY    86  60  41 SW10      30.07F
SOMERSET       CLOUDY    84  63  48 CALM      30.06F
MIDDLESBORO    CLOUDY    87  64  46 S6G22     30.09F
MONTICELLO     MOCLDY    87  66  49 W12       30.06F
$$




USA.gov is the U.S. government's official web portal to all federal, state and local government web resources and services.